Location: ???????
(55.4362°N, 38.1183°E)
Time: 00:59:20
(UTC+00:00)

METEOR M2 - Pass Details

Date: 07 December 2021
Orbit: 818 x 827 km, 98.4° (Epoch: 28 January)

Event Time Altitude Azimuth Distance (km) Brightness Sun altitude
Rises 14:59:42 0° 145° (SE) 3,358 ? -15.8°
Reaches altitude 10° 15:02:05 10° 140° (SE) 2,428 ? -16.2°
Maximum altitude 15:07:17 53° 65° (ENE) 1,017 ? -16.9°
Drops below altitude 10° 15:12:31 10° 351° (N) 2,438 ? -17.6°
Sets 15:14:55 0° 346° (NNW) 3,373 ? -17.9°
